Tracking 28790 objects as of 18-Apr-2024
HD Live streaming from Space Station
objects crossing your sky now

NOAA 4

Track NOAA 4 now!
10-day predictions
NOAA 4 is classified as:


NORAD ID: 7529
Int'l Code: 1974-089A
Perigee: 1,451.7 km
Apogee: 1,465.1 km
Inclination: 102.0 °
Period: 114.9 minutes
Semi major axis: 7829 km
RCS: 3.1879 m2 (large)
Launch date: November 15, 1974
Source: United States (US)
Launch site: AIR FORCE WESTERN TEST RANGE (AFWTR)

Uplink (MHz):
Downlink (MHz):
Beacon (MHz):
Mode:
Call sign:
Status:

Your satellite tracking list
Your tracking list is empty




NASA's NSSDC Master Catalog

Two Line Element Set (TLE):
1 07529U 74089A   24109.51866521 -.00000015  00000-0  20061-3 0  9990
2 07529 101.9869 103.2345 0008568 262.0477 217.0952 12.53178547260605
Source of the keplerian elements: AFSPC